Weather in Kampala

Uganda     0°18′52″N   32°34′43″E
temp.,
°C
wind,
m/s
gust,
m/s
humid.,
%
clouds,
%
prec.,
mm/h
press.,
hPa
HPBL,
m
10 august, wed
wed1000:00+21ssw1159100 0.0 101328
03:00+21w1151100 0.0 101121
06:00+20ne115279 0.0 101238
09:00+24n0042100 0.0 1014352
12:00+28s4433100 0.0 10121947
15:00+27s6542100 0.0 10101419
18:00+24s4649100 0.0 1010624
21:00+20sse247084 0.0 1011135
11 august, thu
thu1100:00+20nw116672 0.0 101112
03:00+20nnw2563100 0.0 1011175
06:00+19nnw2366100 0.0 101284
09:00+24nnw115390 0.0 1014447
12:00+29sse4534100 0.0 10122064
15:00+27s5638100 0.0 10101452
18:00+23s4659100 0.0 1010419
21:00+21s1272100 0.0 101169
12 august, fri
fri1200:00+22wnw116084 0.0 101113
03:00+18nne3773100 0.0 1011172
06:00+17n2382100 0.0 101398
09:00+22nne346591 0.0 1014563
12:00+28sse3441100 0.0 10122253
15:00+25sse4552100 0.0 1010837
18:00+23sse3458100 0.0 1011559
21:00+20se017461 0.0 101231
13 august, sat
sat1300:00+19n227662 0.0 101235
03:00+18n2270100 0.0 101149
06:00+18n24777 0.0 1013124
09:00+23n356173 0.0 1014598
12:00+31ese133374 0.0 10112375
15:00+25sse445098 0.0 1010626
18:00+24sse345677 0.0 1010413
21:00+21wsw016856 0.0 101229
14 august, sun
sun1400:00+19nnw237265 0.0 101390
03:00+19nnw498394 0.0 1011302
06:00+18n129192 0.0 101294
09:00+23n346460 0.0 1013529
12:00+29ne124199 0.6 10111849
15:00+27se3345100 0.6 10081506
18:00+20n358899 3.9 1011237
21:00+19nw269082 7.9 1012163